Temp
71 63 62 64 65 63 60 58 57 62 68 64 63 64 68 72 73 73 74 76 76 78 84 86 87 88 88 86 84 82 81 81 79 76 75 76 76 82 87 88 86 85 87 87
67 62 65 66 64 62 60 57 57 63 66 63 61 61 67 70 71 73 74 75 76 78 81 83 85 86 87 84 83 82 82 81 79 78 80 79 80 85 87 87 83 85 84 84
59 64 66 62 61 58 59 56 56 55 61 64 60 59 64 71 74 75 76 77 78 78 79 81 83 85 87 85 83 82 81 81 79 76 75 74 76 80 82 84 83 83 82 83
62 66 62 62 59 61 53 62 59 56 54 48 61 47 58 65 67 71 73 76 77 79 81 83 83 84 85 88 87 85 83 82 81 75 73 75 76 78 83 85 86 83 81 80
59 62 60 57 58 61 55 61 56 56 54 53 55 49 58 66 63 69 72 75 77 80 81 81 83 85 87 88 89 86 84 82 82 80 78 76 78 84 86 86 80 81 80 83
62 69 65 61 62 62 63 58 55 57 55 42 54 52 55 62 64 67 71 72 73 78 80 82 84 85 85 88 89 88 84 81 82 81 78 76 76 81 79 82 81 83 84 81
59 60 63 63 57 63 60 49 37 38 35 41 56 51 56 64 68 67 68 72 74 76 78 80 80 82 83 84 85 86 84 80 80 79 78 75 77 78 77 81 83 82 84 83
49 47 57 62 58 54 54 49 35 28 36 43 54 45 60 67 70 70 71 73 73 75 77 76 79 81 84 83 83 83 83 81 81 79 75 76 73 72 75 81 84 84 83 82
44 47 62 62 61 58 49 41 51 35 43 37 49 57 64 68 67 67 68 69 71 72 72 73 76 76 77 79 81 81 81 82 82 80 77 76 72 71 75 73 73 80 73 76
52 37 55 58 62 61 55 56 38 36 30 33 48 51 52 60 63 66 66 67 69 71 74 73 75 73 74 76 78 79 80 82 82 82 81 80 77 73 75 77 71 73 71 75
53 39 48 56 54 53 52 41 40 38 39 34 37 47 63 61 64 64 66 67 69 71 72 73 75 75 74 76 79 78 78 80 82 82 81 80 79 77 75 73 75 74 74 75
51 39 38 48 59 62 58 51 49 35 39 42 37 40 64 65 66 66 66 68 70 70 72 73 74 73 73 73 74 76 76 79 82 82 82 80 80 77 72 69 71 71 69 70
45 37 32 44 55 55 50 52 50 45 40 33 31 41 62 61 60 64 65 69 71 71 72 73 73 72 72 72 73 73 74 77 81 83 83 80 79 75 70 67 68 67 65 65
51 44 39 34 44 49 43 47 49 44 33 38 40 45 52 56 58 60 61 62 65 68 70 71 70 71 72 71 71 72 72 75 78 82 82 80 79 77 67 64 64 63 64 60
48 39 46 46 47 49 49 49 49 44 42 33 41 44 51 55 54 54 58 61 60 63 66 67 67 68 71 70 71 71 72 71 76 79 81 80 80 71 66 63 61 61 59 60
47 36 41 39 50 52 49 49 49 48 45 42 43 42 53 55 58 55 54 57 58 59 60 64 65 66 67 69 69 70 71 70 73 77 80 81 75 67 63 61 60 59 58 59
43 40 39 34 49 48 39 46 43 43 45 38 33 46 50 48 49 50 52 53 53 55 59 60 62 64 65 67 68 68 69 70 70 75 79 73 71 65 62 60 59 58 57 57
47 45 43 38 44 32 52 51 47 37 41 47 44 45 47 48 47 46 49 48 48 49 52 57 61 63 64 66 66 67 68 68 69 73 78 67 65 62 60 59 58 57 57 54
54 47 36 33 36 44 49 42 35 34 34 41 38 40 41 40 39 37 44 44 46 49 52 53 57 61 63 64 66 66 66 67 68 72 70 64 62 60 59 58 58 57 55 54
54 50 40 39 30 29 43 50 55 42 31 39 37 34 33 34 28 37 46 44 42 46 49 53 59 60 60 62 64 64 64 65 67 73 64 63 61 59 58 58 57 56 55 53
42 45 41 39 35 43 53 52 48 31 32 36 36 34 33 31 35 37 40 40 43 44 45 50 53 60 60 62 64 62 64 65 67 71 65 60 60 59 59 57 56 55 53 55
37 34 37 40 37 34 56 44 31 35 36 35 34 35 35 36 37 39 42 44 49 46 48 51 55 59 61 63 63 62 63 69 69 64 61 59 59 58 56 54 55 52 50 52
37 43 37 39 41 54 55 41 45 40 34 34 33 35 35 37 40 44 46 52 51 51 54 57 58 60 62 63 63 60 68 61 60 59 58 57 56 55 54 52 50 48 48 50
51 54 44 43 49 50 46 49 45 40 35 35 35 38 41 41 45 55 56 55 57 58 58 60 57 50 55 58 61 61 59 59 58 56 55 55 53 52 52 52 53 48 47 50
48 48 47 45 51 42 48 44 40 38 38 37 39 41 42 46 54 52 57 60 60 58 52 50 51 50 52 55 57 57 58 58 55 54 53 52 51 51 50 50 49 49 51 48
53 48 42 40 42 35 37 43 41 37 36 38 39 41 44 46 49 51 50 55 56 52 51 49 48 49 50 51 53 57 58 57 54 52 51 51 50 49 46 44 42 41 43 43
MSLP
1010.13 1010.15 1008.64 1008.87 1009.18 1009.32 1009.05 1008.16 1006.98 1006.19 1005.84 1005.59 1004.06 1003.27 1002.54 1002.60 1002.16 1001.65 1001.40 1001.25 1001.34 1001.23 1001.40 1001.56 1001.57 1001.73 1002.07 1002.58 1003.05 1003.51 1003.92 1004.26 1004.88 1005.36 1005.72 1006.43 1006.73 1007.15 1007.41 1008.10 1008.64 1009.10 1009.88 1010.47
1009.42 1008.45 1009.18 1009.56 1009.63 1009.32 1008.78 1007.89 1006.57 1005.88 1005.72 1005.65 1004.34 1002.40 1001.77 1001.53 1001.01 1000.56 1000.30 1000.16 1000.08 1000.37 1000.53 1000.72 1000.84 1001.06 1001.23 1001.92 1002.41 1002.87 1003.28 1003.78 1004.30 1004.86 1005.11 1005.72 1006.34 1006.65 1006.94 1007.86 1008.69 1008.83 1009.44 1010.37
1009.60 1008.99 1009.47 1009.54 1009.17 1008.72 1008.17 1007.64 1006.85 1006.51 1006.09 1005.32 1003.87 1001.01 1000.26 999.51 999.24 999.11 999.06 999.03 998.97 999.03 999.32 999.61 999.95 1000.09 1000.34 1000.90 1001.61 1002.00 1002.60 1003.14 1003.93 1004.59 1005.08 1005.82 1006.52 1006.75 1006.98 1007.54 1008.18 1008.62 1009.20 1009.59
1009.59 1009.41 1009.43 1009.05 1008.74 1008.50 1007.86 1007.85 1007.62 1006.77 1006.02 1004.22 1003.99 1000.09 1000.15 999.52 998.84 998.22 997.84 997.71 997.74 997.87 998.21 998.40 998.85 999.12 999.54 999.83 1000.72 1001.31 1001.89 1002.51 1003.23 1004.38 1004.89 1005.31 1005.44 1005.62 1005.90 1006.17 1006.89 1007.87 1008.90 1009.46
1009.34 1009.28 1009.34 1009.15 1008.82 1009.03 1008.50 1008.42 1008.02 1007.16 1005.73 1004.54 1002.79 1001.14 999.00 998.18 997.54 996.80 996.85 996.88 996.80 996.98 997.17 997.67 998.00 998.31 998.79 999.23 999.75 1000.48 1001.17 1001.84 1002.31 1003.27 1004.16 1004.80 1005.00 1005.10 1005.10 1005.77 1006.79 1007.76 1008.42 1008.82
1010.04 1009.76 1009.56 1009.38 1009.35 1009.23 1008.85 1008.30 1007.99 1006.65 1005.21 1003.88 1001.26 1000.69 998.37 997.16 997.35 997.40 997.49 997.54 997.49 997.04 997.10 997.38 997.67 998.02 998.27 998.75 999.20 999.72 1000.53 1001.19 1001.88 1002.51 1003.33 1003.95 1004.36 1004.35 1004.89 1005.25 1006.17 1007.02 1007.29 1008.55
1010.01 1008.88 1009.40 1009.99 1009.29 1008.77 1008.75 1008.52 1007.77 1005.89 1005.41 1002.69 1001.22 1000.37 998.74 998.01 997.79 997.96 997.93 997.63 997.67 997.60 997.39 997.44 997.70 997.82 998.14 998.54 998.95 999.46 999.93 1000.78 1001.54 1002.25 1003.00 1003.58 1004.07 1004.40 1004.44 1005.39 1005.39 1005.89 1006.42 1007.72
1009.82 1008.74 1009.28 1009.70 1009.58 1008.78 1008.66 1009.00 1009.22 1007.26 1005.24 1002.95 1001.98 999.54 997.78 998.36 997.80 998.23 998.13 997.78 997.95 997.84 997.85 997.94 997.72 997.75 997.88 998.49 999.02 999.40 999.62 1000.31 1001.07 1001.97 1002.85 1003.26 1003.75 1004.31 1004.66 1004.51 1004.35 1005.20 1005.96 1007.26
1011.30 1009.91 1009.81 1009.47 1009.47 1009.62 1009.20 1009.46 1009.60 1008.92 1006.89 1004.30 1001.43 999.10 997.96 997.72 997.86 998.21 998.38 998.24 998.08 998.45 998.81 998.70 998.56 998.87 999.02 999.00 998.95 999.21 999.51 999.90 1000.42 1001.31 1002.21 1002.61 1002.98 1003.67 1004.03 1004.72 1004.37 1005.05 1006.29 1007.30
1012.59 1010.97 1010.15 1009.36 1009.23 1008.15 1008.72 1009.40 1009.69 1009.86 1007.20 1003.69 1000.51 998.91 997.31 997.10 997.87 997.97 998.49 998.85 998.91 998.79 998.78 999.06 999.16 999.61 999.72 999.48 999.54 999.74 999.67 999.43 999.95 1000.51 1001.27 1001.67 1002.15 1003.30 1003.89 1004.32 1004.46 1004.29 1006.23 1006.57
1013.48 1013.59 1010.31 1009.83 1008.19 1007.47 1007.84 1009.04 1009.97 1010.07 1008.57 1005.53 1002.47 999.59 998.38 998.69 998.71 998.71 998.74 999.36 999.25 999.07 999.00 999.29 999.43 999.59 999.89 999.76 999.45 999.46 999.71 999.58 999.56 999.96 1000.56 1001.15 1001.64 1002.39 1003.66 1004.12 1004.40 1003.85 1005.74 1007.10
1014.12 1014.10 1011.17 1009.19 1007.95 1007.49 1007.66 1008.00 1008.36 1008.83 1007.40 1006.28 1005.03 1001.17 1000.36 999.53 999.26 999.21 999.23 999.02 999.46 999.70 999.39 999.41 999.63 999.94 1000.00 999.96 999.83 999.75 999.66 999.43 999.18 999.51 999.91 1000.54 1001.01 1001.81 1002.80 1003.61 1004.32 1004.84 1007.38 1007.85
1015.12 1013.91 1011.64 1008.70 1006.77 1007.43 1007.25 1007.59 1008.09 1008.62 1008.58 1006.52 1005.04 1001.51 1000.98 1000.96 1000.58 1000.24 999.70 999.38 999.03 998.91 998.98 999.08 999.26 999.54 999.84 999.99 999.92 999.86 1000.02 999.50 999.16 999.04 999.36 999.99 1000.74 1001.95 1002.78 1003.59 1004.59 1005.78 1006.50 1008.21
1014.70 1013.41 1012.38 1010.74 1008.52 1008.11 1007.15 1007.15 1007.36 1007.88 1007.47 1006.11 1004.73 1002.26 1002.09 1001.31 1000.55 1000.09 1000.10 1000.04 999.93 999.33 998.64 998.64 999.05 999.23 999.57 999.78 999.95 999.88 999.93 999.81 999.28 998.84 998.81 999.32 1000.29 1001.68 1003.42 1004.07 1003.78 1005.86 1006.74 1008.34
1014.20 1013.06 1012.18 1010.63 1009.17 1007.95 1006.53 1005.54 1005.51 1006.01 1006.37 1006.10 1004.71 1003.37 1002.02 1001.35 1001.22 1001.17 1000.81 1000.16 999.88 999.57 999.07 999.00 999.06 999.00 999.07 999.45 999.66 999.68 999.68 999.93 999.39 998.95 998.58 998.99 999.80 1001.96 1003.58 1004.81 1005.27 1006.30 1007.21 1008.63
1013.84 1012.82 1011.99 1010.11 1008.46 1006.78 1005.05 1004.72 1004.88 1005.44 1005.82 1005.79 1004.99 1003.38 1002.73 1002.17 1001.77 1001.38 1001.30 1001.00 1000.35 1000.09 999.65 998.87 998.89 998.85 998.90 998.99 999.38 999.39 999.29 999.67 999.56 998.93 998.40 998.81 999.91 1001.73 1003.31 1004.69 1005.40 1006.06 1008.68 1007.62
1012.82 1012.52 1011.37 1008.76 1007.59 1006.20 1004.63 1004.52 1005.44 1005.72 1005.98 1006.03 1005.03 1003.46 1003.11 1002.50 1002.17 1002.12 1001.67 1001.25 1000.54 1000.03 999.30 998.80 998.46 998.38 998.54 998.59 999.04 999.21 999.33 999.49 999.46 998.64 998.23 999.35 1000.36 1001.59 1003.23 1004.54 1005.35 1006.82 1007.96 1009.03
1011.42 1011.32 1010.66 1008.79 1007.23 1005.23 1003.46 1004.74 1005.40 1006.31 1006.23 1005.44 1004.72 1003.92 1003.64 1002.95 1002.71 1002.48 1002.37 1001.31 1000.60 1000.09 999.26 998.53 998.28 998.05 998.22 998.34 998.73 998.91 999.21 999.33 998.94 998.44 998.02 999.97 1000.84 1001.78 1003.06 1003.95 1004.01 1007.51 1009.21 1010.42
1010.91 1010.89 1010.35 1009.04 1007.34 1005.26 1003.53 1005.46 1006.39 1006.22 1004.15 1005.45 1004.99 1004.94 1004.34 1003.88 1002.96 1000.20 1000.84 1000.52 999.95 999.13 998.45 998.10 998.28 997.82 997.77 998.00 998.27 998.51 998.71 998.67 998.15 997.94 998.65 1000.12 1001.01 1002.17 1003.46 1004.36 1005.73 1008.38 1010.05 1011.07
1010.21 1010.64 1010.44 1008.76 1007.37 1005.25 1004.65 1005.22 1005.67 1006.36 1004.70 1005.50 1005.68 1004.89 1004.18 1003.76 1002.17 998.39 999.09 999.33 999.13 998.66 997.97 997.09 996.51 996.62 996.97 997.28 997.83 998.05 998.05 997.95 997.55 997.23 999.20 1000.24 1001.53 1002.90 1004.07 1005.40 1007.06 1007.93 1010.58 1011.30
1009.75 1009.16 1008.66 1007.86 1006.90 1004.99 1004.15 1005.23 1006.15 1006.67 1006.23 1005.49 1005.26 1004.71 1003.60 1002.68 1001.30 998.98 998.03 996.91 996.30 996.73 996.84 996.93 996.54 995.35 995.83 996.50 996.83 997.06 997.18 996.78 996.88 997.20 999.11 1000.39 1002.00 1003.37 1004.98 1006.33 1007.77 1008.08 1010.36 1012.38
1009.96 1009.41 1008.41 1007.73 1006.48 1004.42 1004.76 1006.05 1007.60 1007.56 1006.56 1006.17 1004.80 1004.05 1002.50 1000.87 998.91 997.42 995.94 994.47 993.16 994.28 995.14 995.51 995.06 994.68 994.90 995.37 995.83 996.03 996.01 995.87 996.43 997.87 999.16 1000.87 1002.57 1003.87 1005.43 1006.74 1008.37 1009.72 1010.32 1013.06
1009.80 1009.43 1009.01 1008.76 1006.73 1005.82 1005.89 1006.95 1007.24 1007.75 1007.10 1005.83 1004.82 1003.30 1001.88 999.64 997.20 995.54 994.12 992.98 992.58 993.17 993.73 994.19 994.25 994.05 994.35 994.66 995.07 995.44 995.06 996.09 997.17 998.38 999.80 1001.33 1003.15 1004.48 1005.94 1007.02 1008.67 1009.44 1012.22 1013.72
1008.72 1008.54 1008.33 1008.08 1006.61 1006.48 1006.62 1006.88 1007.50 1007.46 1006.89 1005.71 1004.43 1002.58 1000.49 998.29 995.95 993.94 993.16 992.72 992.56 992.76 993.01 993.47 993.93 994.52 994.29 994.44 994.64 995.05 995.75 996.70 997.80 999.21 1000.72 1002.66 1003.77 1005.55 1007.24 1008.10 1008.73 1009.05 1012.30 1013.60
1009.54 1008.76 1007.83 1007.47 1006.78 1007.32 1007.11 1007.88 1007.57 1006.91 1006.20 1005.15 1003.45 1001.65 999.60 996.97 995.42 994.49 993.22 992.72 992.94 993.47 994.28 994.67 994.66 994.67 994.84 994.58 995.03 995.66 996.38 997.48 998.60 1000.08 1001.59 1003.78 1004.97 1006.49 1008.11 1009.03 1010.21 1011.19 1012.49 1013.32
1008.51 1008.18 1008.33 1007.82 1008.39 1008.83 1008.17 1007.84 1007.53 1007.14 1005.85 1004.70 1003.00 1000.89 999.12 997.38 996.27 995.38 994.70 994.05 993.92 994.41 994.94 995.38 995.70 995.96 996.31 996.39 996.51 996.97 997.47 998.20 999.33 1001.06 1002.66 1004.44 1005.79 1007.38 1008.61 1010.24 1012.24 1013.24 1014.18 1015.06
Wind_Speed
7 10 10 14 12 13 17 22 26 26 22 23 27 27 27 24 24 25 23 22 22 22 19 17 16 13 9 11 13 15 16 16 14 12 12 10 12 12 11 11 13 15 13 14
11 10 6 10 12 18 21 23 25 23 20 18 24 31 28 25 25 25 24 24 23 23 21 20 19 16 14 11 14 15 17 17 15 11 12 10 11 13 12 12 13 14 15 12
11 13 10 12 17 20 18 19 20 23 23 22 25 30 20 17 15 20 25 25 25 25 23 22 20 19 16 13 14 16 17 17 15 14 10 8 7 8 10 12 12 13 13 14
9 5 13 17 18 16 17 16 21 23 22 20 20 25 24 21 20 17 18 21 22 22 22 21 22 21 19 15 13 14 15 17 17 13 10 16 12 13 12 13 12 12 14 14
8 14 18 17 11 13 18 17 19 25 24 25 24 15 18 17 18 12 8 9 12 15 17 20 20 22 21 19 15 14 14 17 17 19 18 13 14 14 11 11 14 13 13 14
15 15 15 10 14 12 19 17 19 26 13 10 15 9 10 9 10 8 5 4 4 10 11 14 17 18 19 18 17 15 15 15 17 18 19 17 16 14 12 13 13 14 12 11
19 6 5 9 14 18 16 13 9 5 5 11 10 12 11 17 12 9 10 11 5 4 7 9 14 15 15 17 18 15 15 15 15 16 19 18 19 17 14 17 14 14 12 12
11 16 4 9 23 23 18 9 6 9 13 20 20 9 7 17 13 8 8 10 7 4 4 4 6 9 12 15 15 16 16 15 15 16 17 18 16 11 12 16 13 11 10 10
14 11 23 18 9 11 9 10 10 8 19 14 10 14 15 4 3 2 5 5 5 1 2 4 3 2 6 9 8 11 15 15 15 16 15 16 13 13 14 12 10 12 9 6
12 17 13 7 20 6 11 7 7 4 7 14 11 18 13 5 11 4 3 2 2 2 0 5 5 6 5 5 6 8 10 14 15 15 15 14 16 15 16 17 14 15 10 12
15 5 12 23 17 19 10 5 6 5 7 11 16 9 12 8 14 18 3 4 6 6 6 8 8 7 7 7 8 4 7 12 14 14 15 15 15 19 17 14 14 15 15 18
9 6 17 23 22 15 12 15 13 6 13 13 13 18 21 15 10 13 18 7 7 9 10 9 9 8 9 9 9 8 4 9 12 14 14 15 15 15 13 9 14 14 17 15
2 4 10 13 6 7 11 17 18 17 15 19 15 14 17 17 19 21 21 19 15 14 14 14 14 11 11 11 10 9 7 6 10 13 15 14 13 16 18 12 16 17 18 17
19 9 15 15 23 24 27 26 23 18 9 19 20 28 24 24 25 22 18 20 21 23 22 17 18 17 13 12 11 10 8 9 8 13 15 15 13 16 13 17 10 17 19 21
6 13 19 23 24 26 29 30 26 21 20 11 20 26 27 25 24 21 23 22 20 21 24 23 22 20 18 14 13 11 8 7 8 13 15 15 13 15 17 17 19 16 18 20
4 11 16 24 24 25 27 26 17 13 14 19 23 31 28 20 21 21 20 22 25 25 27 27 26 24 20 18 15 12 10 7 9 13 15 16 17 17 20 19 19 18 15 20
9 7 10 20 20 25 16 3 9 14 15 12 19 32 28 25 21 22 24 26 25 24 25 25 23 20 19 16 14 13 11 9 9 13 17 14 16 19 19 19 21 17 17 15
10 12 10 16 22 16 15 12 2 11 17 25 27 28 24 24 22 26 27 30 30 30 28 27 23 19 19 16 15 13 12 12 11 15 16 16 16 18 17 17 20 16 13 14
11 10 7 6 12 23 14 5 4 10 25 20 15 17 22 23 24 29 24 24 26 24 22 22 24 24 20 17 15 13 13 13 12 16 16 17 18 17 18 18 20 18 16 15
7 10 11 12 14 12 10 12 18 20 20 4 20 24 25 20 18 23 15 14 17 18 17 16 15 20 22 20 17 17 14 14 14 18 18 19 19 20 19 20 20 21 17 19
11 12 11 12 12 15 11 20 18 8 17 28 25 23 25 23 20 28 27 27 21 19 21 21 21 17 19 20 18 16 15 16 14 17 21 20 19 20 20 20 19 21 19 17
7 7 8 8 15 10 22 13 7 12 18 24 26 25 26 27 28 25 24 21 17 16 17 19 14 14 16 17 16 17 16 14 13 19 20 20 20 17 17 23 21 21 24 18
5 5 8 8 11 25 20 12 11 17 20 23 25 26 26 28 27 24 17 9 4 13 15 17 14 12 13 15 15 15 15 14 18 21 21 21 20 19 21 23 22 19 19 16
11 13 9 15 11 20 18 15 17 18 20 23 23 25 24 25 25 10 6 5 8 9 10 10 7 6 8 13 15 11 16 18 21 21 20 17 18 19 18 16 16 18 17 15
14 13 13 16 21 17 13 19 18 21 22 22 24 24 23 20 11 11 9 11 11 11 9 4 7 10 9 10 14 17 19 20 20 20 19 16 15 16 16 14 14 15 14 11
6 10 9 14 9 6 16 20 21 19 22 23 23 23 21 16 11 10 10 10 12 12 13 12 11 13 12 13 11 16 20 22 22 20 16 14 14 13 14 15 16 27 20 20
Wind_Direction
324 292 295 327 313 301 294 290 291 290 297 295 287 284 278 278 270 262 259 255 247 248 248 240 236 239 230 213 210 213 214 213 211 205 193 172 181 193 190 193 188 180 199 194
284 281 352 300 291 293 295 292 288 297 308 305 296 285 285 280 271 264 259 254 245 245 238 238 236 233 227 208 211 206 213 211 211 197 199 184 190 200 194 190 188 188 184 194
300 303 314 291 303 299 293 289 300 306 304 288 283 278 283 286 269 255 251 251 250 241 238 229 229 227 226 203 205 201 206 202 205 207 197 181 180 205 190 190 188 191 188 180
290 315 298 306 302 310 302 316 305 295 299 296 307 292 291 287 280 269 264 250 244 237 229 226 219 222 220 220 201 209 201 202 197 199 187 193 182 191 197 192 182 175 186 193
269 314 316 304 311 318 300 306 302 289 286 287 280 265 290 279 270 288 273 257 243 229 224 213 216 217 217 218 212 205 202 200 202 194 204 195 209 203 188 192 176 188 185 190
272 273 274 295 310 289 301 290 295 278 275 273 278 309 301 316 347 339 348 34 337 223 212 214 213 221 221 223 225 213 204 208 205 196 195 206 203 211 188 192 184 189 176 185
314 260 241 285 300 303 304 310 293 269 216 271 343 290 297 305 319 320 316 300 282 235 239 207 211 222 225 223 226 225 213 208 204 202 207 202 212 216 206 196 188 181 175 186
312 314 360 319 304 297 297 299 273 296 309 306 314 278 314 332 308 279 301 269 246 227 15 304 262 232 227 220 226 227 223 210 201 204 208 202 194 202 203 199 175 182 172 185
316 287 318 302 324 307 310 268 295 284 266 262 248 249 238 196 84 98 52 22 206 106 29 26 29 352 278 279 262 237 226 213 207 205 202 209 184 188 191 185 152 152 154 164
298 300 303 287 309 276 238 276 274 216 279 298 294 307 293 23 350 48 86 45 162 185 48 49 29 28 342 321 248 233 248 220 211 202 210 213 198 192 200 195 176 153 157 147
313 247 273 300 290 301 276 239 236 277 275 288 300 286 22 343 313 305 323 284 293 297 314 332 342 354 347 342 329 295 234 225 215 208 205 222 208 189 200 189 182 167 165 162
325 276 280 298 288 267 286 288 287 262 278 288 290 281 278 293 314 323 305 275 263 277 284 295 307 323 318 326 328 330 329 247 217 208 205 210 216 199 192 184 174 147 158 146
305 262 298 298 288 178 284 302 290 281 279 270 264 271 300 304 300 291 290 280 259 256 265 283 290 296 301 305 305 310 320 288 234 210 207 212 211 197 192 196 185 152 133 124
289 258 262 277 291 305 297 292 281 270 263 288 281 291 301 295 290 295 296 292 288 288 286 278 281 284 284 289 292 289 297 304 256 219 211 209 199 189 143 132 129 137 130 127
267 274 293 288 288 287 284 286 294 287 275 272 288 289 293 306 310 306 302 298 290 281 270 269 273 276 277 273 277 282 273 286 271 233 209 199 186 153 136 135 133 133 133 139
246 284 296 286 285 289 303 302 294 291 286 284 286 288 289 310 299 295 287 280 272 268 273 271 266 265 266 265 263 271 272 268 279 233 215 191 156 139 137 136 132 123 148 137
265 259 287 288 301 308 289 4 300 285 290 278 278 290 302 293 292 295 292 284 277 277 273 268 265 261 259 252 257 260 265 262 264 230 215 160 158 141 142 137 136 135 139 140
248 259 270 285 303 293 329 7 315 249 266 282 290 286 290 293 298 284 279 278 276 272 268 262 257 248 251 245 253 256 255 251 244 235 202 157 148 144 141 137 124 129 132 136
236 282 283 284 301 291 290 24 314 280 286 285 290 292 286 292 291 277 261 257 261 263 259 247 249 251 245 236 238 241 241 240 229 218 159 155 143 146 143 134 127 131 118 115
255 258 268 296 287 299 331 320 322 324 289 89 317 303 301 302 288 284 300 277 258 255 258 275 245 231 230 231 234 238 232 234 222 200 152 147 147 146 144 137 134 128 126 120
299 300 291 290 282 286 322 345 337 304 321 310 307 302 298 291 273 283 286 279 264 242 236 242 256 223 216 219 220 218 220 224 229 168 146 141 148 145 140 134 132 120 121 128
289 291 300 300 302 287 341 351 333 304 301 301 305 303 299 294 294 293 291 284 263 225 211 211 208 203 197 200 200 205 211 203 181 144 140 138 144 135 132 132 129 127 113 129
283 254 286 286 284 301 319 319 319 319 301 304 304 304 301 296 297 296 295 330 107 159 184 197 211 209 192 191 193 206 194 136 137 135 130 132 133 131 136 134 130 126 124 132
294 304 268 291 270 312 323 328 329 313 308 307 307 306 307 303 303 336 28 50 99 126 154 172 157 205 185 196 195 156 134 136 130 129 128 132 132 132 136 135 132 124 138 137
282 289 278 283 298 325 309 326 317 318 314 316 319 316 313 310 23 13 47 84 87 86 98 133 100 79 74 85 116 125 127 129 124 122 121 126 123 126 129 120 127 131 120 127
283 295 304 303 337 284 306 314 323 323 320 327 325 328 333 355 13 34 31 58 100 110 105 94 94 95 88 87 95 124 128 124 122 117 120 122 119 118 111 111 95 61 89 92